Regional Weather Roundup
Issued by NWS

Home | Current Version | Previous Version | Text Only | Print | Product List | Glossary On
Versions: 1 2 3 4 5 6 7 8 9 10 11 12 13 14 15 16 17 18 19 20 21 22 23 24 25 26 27 28 29 30 31 32 33 34 35 36 37 38 39 40 41 42 43 44 45 46 47 48 49 50
000
ASUS43 KLMK 211610
RWRKY
KENTUCKY REGIONAL WEATHER ROUNDUP
NATIONAL WEATHER SERVICE LOUISVILLE KY
1200 PM EDT TUE OCT 21 2014

NOTE "FAIR" INDICATES FEW OR NO CLOUDS BELOW 12,000 FEET
WITH NO SIGNIFICANT WEATHER AND/OR OBSTRUCTIONS TO VISIBILITY.

KYZ001>023-026-027-061>063-070>075-211700-
WESTERN AND SOUTH CENTRAL KENTUCKY

CITY           SKY/WX    TMP DP  RH WIND       PRES   REMARKS
PADUCAH        SUNNY     66  50  56 CALM      30.09R
HENDERSON      SUNNY    N/A N/A N/A NE7       30.09S
OWENSBORO      SUNNY     61  45  55 NE9       30.09S
HOPKINSVILLE   SUNNY     66  48  53 NW9       30.08S
BOWLING GREEN  SUNNY     64  48  56 VRB3      30.08R
GLASGOW        PTSUNNY   62  46  54 NW7       30.08R
$$

KYZ024-025-028>034-038-045-046-053-211700-
NORTH CENTRAL KENTUCKY

CITY           SKY/WX    TMP DP  RH WIND       PRES   REMARKS
LOUISVILLE/SDF PTSUNNY   58  46  64 NE8       30.08R
LOUISVILLE/LOU PTSUNNY   57  46  66 N9        30.08S
FORT KNOX      CLOUDY    58  46  65 NW12      30.07S
$$

KYZ035>037-039>044-047>052-055>060-089>105-211700-
NORTHEAST KENTUCKY

CITY           SKY/WX    TMP DP  RH WIND       PRES   REMARKS
LEXINGTON      CLOUDY    57  45  64 NW10      30.05S
COVINGTON      PTSUNNY   56  43  61 NW10G18   30.04R
FRANKFORT      CLOUDY    55  43  63 NW6       30.06R
$$

KYZ054-064>069-076>088-106>120-211700-
SOUTHEAST KENTUCKY

CITY           SKY/WX    TMP DP  RH WIND       PRES   REMARKS
JACKSON        CLOUDY    54  46  74 VRB7      30.02R
LONDON         PTSUNNY   61  43  51 NW9       30.04R
SOMERSET       CLOUDY    59  43  55 N5        30.06S
MIDDLESBORO    MOSUNNY   62  47  58 NW8G17    30.03S
MONTICELLO       N/A    N/A N/A N/A MISG        N/A
$$




USA.gov is the U.S. government's official web portal to all federal, state and local government web resources and services.